Weather History for Mason City, IA

Change the Weather History Date:

Saturday, November 10, 2012

  Actual Average Record
Temperature  
Mean Temperature 62 °F 37 °F  
Max Temperature 76 °F 47 °F 76 °F (2012)
Min Temperature 48 °F 27 °F -1 °F (1986)
Degree Days  
Heating Degree Days 3 28  
Month to date heating degree days 225 256  
Since 1 July heating degree days 991 994  
Cooling Degree Days 0 0  
Month to date cooling degree days 0 0  
Year to date cooling degree days 899 616  
Growing Degree Days 12 (Base 50)    
Moisture  
Dew Point 49 °F    
Average Humidity 68    
Maximum Humidity 93    
Minimum Humidity 43    
Precipitation  
Precipitation 0.01 in 0.07 in 1.12 in (1919)
Month to date precipitation 0.28 0.68  
Year to date precipitation 18.76 32.76  
Snow  
Snow 0.00 in 0.10 in 7.00 in (1896)
Month to date snowfall 0.0 0.7  
Since 1 July snowfall 0.0 1.1  
Since 1 September snowfall 0.0 1.1  
Snow Depth 0.00 in    
Sea Level Pressure  
Sea Level Pressure 29.66 in    
Wind  
Wind Speed 18 mph (SSE)    
Max Wind Speed 35 mph    
Max Gust Speed 44 mph    
Visibility 7 miles    
Events Rain , Thunderstorm    
T = Trace of Precipitation, MM = Missing Value Source: NWS Daily Summary

Daily Weather History Graph

Daily Weather History Graph

Search for Another Location

Airport:

Trip Planner

Search our weather history database for the weather conditions in past years. The results will help you decide how hot, cold, wet, or windy it might be!

Date:

Astronomy

Nov. 10, 2012 Rise Set
Actual Time 7:00 AM CST 4:53 PM CST
Civil Twilight 6:30 AM CST 5:24 PM CST
Nautical Twilight 5:55 AM CST 5:58 PM CST
Astronomical Twilight 5:22 AM CST 6:31 PM CST
Moon 3:00 AM CST (11/10) 2:45 PM CST (11/10)
Length of Visible Light 10h 53m
Length of Day
9h 53m
Waning Crescent, 14% of the Moon is Illuminated
Nov 10
Waning Crescent
Nov 13
New
Nov 20
First Quarter
Nov 28
Full
Dec 6
Last Quarter

Hourly Weather History & Observations

Time (CST) Temp. Dew Point Humidity Pressure Visibility Wind Dir Wind Speed Gust Speed Precip Events Conditions
12:53 AM 48.0 °F 42.1 °F 80% 29.83 in 4.0 mi East 13.8 mph - N/A   Haze
1:29 AM 48.2 °F 42.8 °F 82% 29.81 in 4.0 mi East 13.8 mph - 0.00 in Rain , Thunderstorm Light Rain
1:53 AM 48.0 °F 43.0 °F 83% 29.80 in 4.0 mi ESE 16.1 mph 21.9 mph 0.00 in Thunderstorm Haze
2:01 AM 48.2 °F 42.8 °F 82% 29.81 in 4.0 mi ESE 13.8 mph - N/A   Haze
2:53 AM 48.0 °F 43.0 °F 83% 29.78 in 4.0 mi ESE 16.1 mph 21.9 mph N/A   Haze
3:53 AM 48.9 °F 44.1 °F 83% 29.76 in 4.0 mi ESE 15.0 mph - N/A   Haze
4:53 AM 50.0 °F 45.0 °F 83% 29.74 in 4.0 mi SE 16.1 mph - N/A   Haze
5:21 AM 48.2 °F 44.6 °F 87% 29.74 in 3.0 mi SE 13.8 mph 20.7 mph N/A   Scattered Clouds
5:53 AM 48.0 °F 45.0 °F 89% 29.72 in 2.5 mi SE 15.0 mph - N/A   Clear
6:53 AM 48.0 °F 46.0 °F 93% 29.71 in 2.5 mi SE 16.1 mph - N/A   Clear
7:53 AM 50.0 °F 46.9 °F 89% 29.71 in 2.5 mi SE 13.8 mph 24.2 mph N/A   Partly Cloudy
8:07 AM 51.8 °F 48.2 °F 88% 29.71 in 3.0 mi SE 15.0 mph 20.7 mph N/A   Mostly Cloudy
8:53 AM 53.1 °F 50.0 °F 89% 29.68 in 5.0 mi SE 16.1 mph - N/A   Overcast
9:32 AM 59.0 °F 53.6 °F 82% 29.67 in 10.0 mi SSE 19.6 mph 26.5 mph N/A   Scattered Clouds
9:53 AM 59.0 °F 53.1 °F 81% 29.66 in 10.0 mi SSE 18.4 mph 28.8 mph N/A   Partly Cloudy
10:53 AM 66.0 °F 55.0 °F 68% 29.63 in 10.0 mi South 20.7 mph 25.3 mph N/A   Partly Cloudy
11:53 AM 71.1 °F 54.0 °F 55% 29.60 in 10.0 mi SSW 21.9 mph 29.9 mph N/A   Clear
12:53 PM 73.9 °F 52.0 °F 46% 29.58 in 10.0 mi SSW 23.0 mph 34.5 mph N/A   Clear
1:53 PM 75.0 °F 51.1 °F 43% 29.57 in 10.0 mi SSW 25.3 mph 31.1 mph N/A   Clear
2:53 PM 75.9 °F 53.1 °F 45% 29.56 in 10.0 mi South 23.0 mph 34.5 mph N/A   Clear
3:53 PM 72.0 °F 53.1 °F 51% 29.55 in 10.0 mi South 19.6 mph 28.8 mph N/A   Clear
4:53 PM 68.0 °F 54.0 °F 61% 29.56 in 10.0 mi South 15.0 mph - N/A   Clear
5:53 PM 64.9 °F 55.0 °F 70% 29.58 in 10.0 mi South 15.0 mph - 0.00 in   Mostly Cloudy
6:53 PM 66.0 °F 55.0 °F 68% 29.57 in 10.0 mi South 16.1 mph - N/A   Overcast
7:53 PM 66.0 °F 54.0 °F 65% 29.54 in 10.0 mi South 20.7 mph 31.1 mph N/A   Overcast
8:53 PM 63.0 °F 52.0 °F 67% 29.54 in 10.0 mi South 19.6 mph 27.6 mph N/A   Partly Cloudy
9:53 PM 62.1 °F 51.1 °F 67% 29.55 in 10.0 mi South 18.4 mph 25.3 mph N/A   Clear
10:53 PM 62.1 °F 50.0 °F 65% 29.56 in 10.0 mi South 17.3 mph - N/A   Mostly Cloudy
11:53 PM 62.1 °F 51.1 °F 67% 29.63 in 10.0 mi WSW 20.7 mph 28.8 mph 0.01 in Rain Light Rain